{"data":{"norad_id":43445,"epoch":"2026-09-11T18:53:47.986944Z","epoch_age_seconds":808859,"freshness":"AGED","line1":"1 43445U 18036E   26254.78736096 -.00000059  00000+0  00000+0 0  9996","line2":"2 43445   7.3226  65.8755 0011091 170.1684 357.7542  1.02112295 27822","mean_motion":1.02112295,"eccentricity":0.0011091,"inclination_deg":7.3226,"raan_deg":65.8755,"arg_perigee_deg":170.1684,"mean_anomaly_deg":357.7542,"bstar":0,"rev_number":2782,"period_min":1410.2121590745,"perigee_km":35232.197452511,"apogee_km":35324.599980037,"semimajor_km":41656.535716274,"source":"CELESTRAK","updated_at":"2026-09-20T09:00:14.321699Z"}}